Weather reports worldwide

Advertisment
Weybourne, United Kingdom (3488): temperature & dewpoint: 19.09.2018 11:00:00 - 25.09.2018 11:00:00 (BST)Weybourne, United Kingdom (3488): wind speed & gusts: 19.09.2018 11:00:00 - 25.09.2018 11:00:00 (BST)Weybourne, United Kingdom (3488): wind direction: 19.09.2018 11:00:00 - 25.09.2018 11:00:00 (BST)Weybourne, United Kingdom (3488): reduced air pressure: 19.09.2018 11:00:00 - 25.09.2018 11:00:00 (BST)Weybourne, United Kingdom (3488): visibility: 19.09.2018 11:00:00 - 25.09.2018 11:00:00 (BST)Weybourne, United Kingdom (3488): sunshine duration: 19.09.2018 11:00:00 - 25.09.2018 11:00:00 (BST)Weybourne, United Kingdom (3488): precipitation: 19.09.2018 11:00:00 - 25.09.2018 11:00:00 (BST)
Date & Time tt [°C] td [°C] ff [km/h] ff [kn] fx [km/h] fx [kn] dd ppp [hPa] vv [km] sd [min] rr [mm]
25.09.2018 11:00:00 - - - - - - - - - - -
25.09.2018 10:00:00 12,0 8,3 13 7 - - SSW 1038,7 40 60 0,0
25.09.2018 09:00:00 9,9 7,8 8 4 - - WSW 1038,6 35 60 0,0
25.09.2018 08:00:00 6,9 6,3 13 7 - - SSW 1038,2 40 48 0,0
25.09.2018 07:00:00 5,2 4,5 9 5 - - SSW 1037,7 30 0 0,0
25.09.2018 06:00:00 5,4 4,9 15 8 - - SSW 1037,8 35 0 0,0
25.09.2018 05:00:00 6,0 5,3 15 8 - - SSW 1038,0 35 0 0,0
25.09.2018 04:00:00 5,9 5,3 13 7 - - SSW 1038,2 50 0 0,0
25.09.2018 03:00:00 5,5 4,9 15 8 - - SSW 1038,2 50 0 0,0
25.09.2018 02:00:00 5,7 4,8 11 6 - - SSW 1038,4 40 0 0,0
25.09.2018 01:00:00 5,9 4,7 15 8 - - SSW 1038,3 50 - 0,0
25.09.2018 00:00:00 5,5 4,2 13 7 - - S 1038,3 50 0 0,0
24.09.2018 23:00:00 5,0 4,3 11 6 - - S 1038,4 50 0 0,0
24.09.2018 22:00:00 5,5 4,6 11 6 - - S 1038,2 45 0 0,0
24.09.2018 21:00:00 6,0 5,1 9 5 - - S 1037,9 40 0 0,0
24.09.2018 20:00:00 6,9 4,8 8 4 - - SSW 1037,3 40 0 0,0
24.09.2018 19:00:00 9,7 4,9 5 3 - - SW 1036,9 40 36 0,0
24.09.2018 18:00:00 13,5 6,2 9 5 - - NW 1036,7 30 60 0,0
24.09.2018 17:00:00 14,1 6,1 13 7 - - NW 1037,0 35 60 0,0
24.09.2018 16:00:00 14,7 6,1 18 10 - - WNW 1037,1 30 60 0,0
24.09.2018 15:00:00 14,7 4,5 21 11 - - WNW 1037,1 45 60 0,0
24.09.2018 14:00:00 14,4 5,0 21 11 - - WNW 1037,2 26 60 0,0
24.09.2018 13:00:00 13,8 5,9 26 14 - - WNW 1037,4 35 60 0,0
24.09.2018 12:00:00 13,4 6,3 24 13 - - WNW 1037,0 22 60 0,0
24.09.2018 11:00:00 12,9 7,5 24 13 - - WNW 1036,6 26 54 0,0
24.09.2018 10:00:00 11,9 8,1 26 14 - - NW 1036,2 16 60 0,0
24.09.2018 09:00:00 11,2 8,2 26 14 - - NW 1035,1 35 30 0,0
24.09.2018 08:00:00 10,5 7,7 24 13 - - NW 1034,5 24 6 0,0
24.09.2018 07:00:00 10,1 7,7 24 13 - - NW 1033,6 20 0 0,0
24.09.2018 06:00:00 8,0 7,2 11 6 - - W 1033,2 30 0 0,0
24.09.2018 05:00:00 7,7 6,8 15 8 - - WSW 1032,7 50 0 0,0
24.09.2018 04:00:00 7,8 6,6 21 11 - - WSW 1032,2 50 0 0,0
24.09.2018 03:00:00 7,3 5,8 18 10 - - WSW 1031,5 50 0 0,0
24.09.2018 02:00:00 7,5 5,6 16 9 - - WSW 1030,9 50 0 0,0
24.09.2018 01:00:00 10,9 6,0 26 14 - - WNW 1030,1 30 - 0,0
24.09.2018 00:00:00 11,3 6,2 29 16 - - NW 1029,4 23 0 0,0
23.09.2018 23:00:00 11,3 6,2 29 16 - - NNW 1028,4 21 0 0,0
23.09.2018 22:00:00 11,4 6,6 31 17 46 25 NNW 1027,5 20 0 0,0
23.09.2018 21:00:00 11,7 6,7 35 19 46 25 NNW 1026,4 23 0 0,0
23.09.2018 20:00:00 11,6 6,6 39 21 50 27 NNW 1025,0 19 0 0,0
23.09.2018 19:00:00 11,4 6,9 39 21 48 26 NNW 1023,3 17 0 0,2
23.09.2018 18:00:00 9,8 7,6 41 22 57 31 N 1022,3 7 0 0,2
23.09.2018 17:00:00 11,7 7,2 42 23 55 30 NNW 1020,7 21 30 0,0
23.09.2018 16:00:00 12,6 8,0 41 22 52 28 N 1019,2 27 18 0,0
23.09.2018 15:00:00 13,3 6,6 41 22 50 27 NNW 1018,1 35 48 0,0
23.09.2018 14:00:00 11,1 6,0 35 19 52 28 NNW 1016,9 40 0 0,0
23.09.2018 13:00:00 12,4 9,0 31 17 - - NNW 1016,0 50 0 0,2
23.09.2018 12:00:00 10,4 7,1 18 10 - - NW 1015,8 40 0 0,0
23.09.2018 11:00:00 10,9 6,5 16 9 - - NW 1015,4 27 0 0,2
23.09.2018 10:00:00 11,7 8,3 18 10 - - N 1014,8 45 0 0,0
23.09.2018 09:00:00 11,0 8,1 13 7 - - N 1014,3 19 0 0,4
23.09.2018 08:00:00 11,0 8,3 16 9 - - N 1013,7 23 0 0,6
23.09.2018 07:00:00 11,0 7,8 11 6 - - NNE 1013,8 13 0 0,2
23.09.2018 06:00:00 12,1 6,4 13 7 - - N 1014,1 45 0 0,0
23.09.2018 05:00:00 12,3 7,2 16 9 - - NNE 1014,0 29 0 0,0
23.09.2018 04:00:00 12,1 6,6 9 5 - - N 1014,1 40 0 0,0
23.09.2018 03:00:00 10,4 8,8 4 2 - - SW 1014,6 45 0 0,0
23.09.2018 02:00:00 10,2 8,4 5 3 - - WSW 1015,0 50 0 0,0
23.09.2018 01:00:00 10,0 8,5 8 4 - - SW 1015,5 50 - 0,0
23.09.2018 00:00:00 9,7 8,7 8 4 - - SW 1015,7 50 0 0,0
22.09.2018 23:00:00 9,7 8,3 8 4 - - SSW 1015,7 50 0 0,0
22.09.2018 22:00:00 9,6 8,6 8 4 - - SSW 1016,1 50 0 0,0
22.09.2018 21:00:00 10,0 8,1 5 3 - - SW 1016,0 50 0 0,0
22.09.2018 20:00:00 10,8 8,4 8 4 - - SW 1016,2 29 0 0,0
22.09.2018 19:00:00 11,5 8,2 15 8 - - SW 1016,1 45 0 0,0
22.09.2018 18:00:00 12,2 8,9 21 11 - - SSW 1016,0 35 0 0,0
22.09.2018 17:00:00 13,7 8,0 16 9 - - WSW 1015,9 45 0 0,0
22.09.2018 16:00:00 13,9 7,8 21 11 - - WSW 1016,4 35 0 0,0
22.09.2018 15:00:00 14,0 7,4 22 12 - - WSW 1017,0 50 0 0,0
22.09.2018 14:00:00 14,2 7,7 24 13 - - WSW 1017,4 45 6 0,0
22.09.2018 13:00:00 13,3 6,7 24 13 - - W 1017,3 50 0 0,0
22.09.2018 12:00:00 13,5 7,3 28 15 - - WSW 1017,8 45 0 0,0
22.09.2018 11:00:00 12,7 8,1 22 12 - - WSW 1017,7 35 0 0,0
22.09.2018 10:00:00 11,9 8,3 21 11 - - WSW 1017,7 40 0 0,0
22.09.2018 09:00:00 10,9 7,8 24 13 - - WSW 1017,3 45 6 0,0
22.09.2018 08:00:00 9,9 7,7 24 13 - - SW 1017,0 40 18 0,0
22.09.2018 07:00:00 9,3 7,4 22 12 - - SW 1016,9 45 0 0,0
22.09.2018 06:00:00 9,2 7,3 22 12 - - SW 1016,8 40 0 0,0
22.09.2018 05:00:00 9,5 7,2 24 13 - - SW 1016,6 40 0 0,0
22.09.2018 04:00:00 9,3 7,3 22 12 - - SW 1016,5 45 0 0,0
22.09.2018 03:00:00 9,3 6,7 22 12 - - SW 1016,2 50 0 0,0
22.09.2018 02:00:00 9,8 6,4 26 14 - - WSW 1015,6 50 0 0,0
22.09.2018 01:00:00 9,9 6,5 31 17 - - WSW 1015,1 50 - 0,0
22.09.2018 00:00:00 10,1 6,9 28 15 - - SW 1014,8 50 0 0,0
21.09.2018 23:00:00 10,2 7,4 28 15 54 29 WSW 1013,9 45 0 0,0
21.09.2018 22:00:00 11,1 7,4 37 20 54 29 W 1012,8 40 0 0,0
21.09.2018 21:00:00 11,0 7,5 37 20 54 29 W 1012,0 50 0 0,0
21.09.2018 20:00:00 10,9 7,5 37 20 65 35 WSW 1010,6 50 0 0,0
21.09.2018 19:00:00 11,7 7,7 44 24 72 39 W 1008,9 50 6 0,0
21.09.2018 18:00:00 12,1 9,0 42 23 76 41 WSW 1007,3 40 12 0,4
21.09.2018 17:00:00 11,9 9,0 37 20 61 33 WSW 1006,6 10 6 0,2
21.09.2018 16:00:00 12,5 8,0 39 21 57 31 WSW 1006,1 50 6 0,0
21.09.2018 15:00:00 12,9 6,9 39 21 63 34 WSW 1005,9 50 48 0,0
21.09.2018 14:00:00 12,3 10,1 31 17 91 49 WSW 1005,3 30 18 1,8
21.09.2018 13:00:00 13,6 4,5 39 21 61 33 WSW 1004,7 50 24 0,0
21.09.2018 12:00:00 12,9 5,3 42 23 65 35 WSW 1004,2 50 30 0,0
21.09.2018 11:00:00 13,0 5,9 42 23 68 37 WSW 1003,4 50 60 0,0
21.09.2018 10:00:00 11,7 6,4 44 24 61 33 WSW 1002,8 50 48 0,0
21.09.2018 09:00:00 11,6 6,9 42 23 68 37 WSW 1001,7 50 36 0,0
21.09.2018 08:00:00 10,8 6,7 42 23 67 36 WSW 1000,2 50 30 0,0
21.09.2018 07:00:00 10,6 6,4 48 26 72 39 W 998,4 40 0 0,0
21.09.2018 06:00:00 10,9 6,8 57 31 89 48 WSW 996,6 50 0 0,0
21.09.2018 05:00:00 13,7 10,1 48 26 72 39 WSW 994,1 50 0 0,0
21.09.2018 04:00:00 14,2 11,2 44 24 78 42 SW 992,7 50 0 3,6
21.09.2018 03:00:00 16,4 15,5 48 26 78 42 SW 992,4 1,7 0 3,2
21.09.2018 02:00:00 18,0 14,8 44 24 70 38 S 992,6 45 0 0,2
21.09.2018 01:00:00 17,2 14,7 35 19 61 33 S 994,4 35 - 0,6
21.09.2018 00:00:00 17,7 14,9 37 20 63 34 S 996,2 16 0 0,2
20.09.2018 23:00:00 18,3 14,1 35 19 63 34 S 998,4 28 0 0,0
20.09.2018 22:00:00 18,8 13,4 34 18 61 33 S 999,9 45 0 0,0
20.09.2018 21:00:00 19,1 13,3 35 19 65 35 S 1001,2 50 0 0,0
20.09.2018 20:00:00 19,3 13,5 48 26 67 36 SSW 1002,3 40 0 0,0
20.09.2018 19:00:00 19,2 13,4 35 19 61 33 SSW 1002,9 50 0 0,0
20.09.2018 18:00:00 19,2 13,1 37 20 57 31 S 1003,6 45 0 0,0
20.09.2018 17:00:00 19,3 14,3 31 17 59 32 S 1004,7 30 0 0,0
20.09.2018 16:00:00 19,2 15,4 26 14 46 25 S 1006,4 29 6 0,0
20.09.2018 15:00:00 18,6 16,6 24 13 - - S 1007,6 27 0 0,0
20.09.2018 14:00:00 16,5 15,8 11 6 - - SSE 1008,6 28 0 0,0
20.09.2018 13:00:00 15,9 15,4 11 6 - - S 1009,4 7 0 0,0
20.09.2018 12:00:00 15,5 14,7 9 5 - - S 1010,5 50 0 0,0
20.09.2018 11:00:00 14,4 14,0 11 6 - - SSE 1011,0 50 0 0,4
20.09.2018 10:00:00 12,9 12,7 5 3 - - S 1011,5 4,0 0 0,8
20.09.2018 09:00:00 12,0 11,8 9 5 - - SE 1011,6 3,4 0 1,2
20.09.2018 08:00:00 11,5 11,1 2 1 - - S 1011,5 13 0 1,0
20.09.2018 07:00:00 11,5 11,2 8 4 - - SW 1011,9 6 0 0,6
20.09.2018 06:00:00 11,9 11,5 13 7 - - W 1011,8 4,7 0 0,8
20.09.2018 05:00:00 12,2 11,8 11 6 - - SW 1011,9 13 0 0,6
20.09.2018 04:00:00 12,5 11,8 21 11 - - SW 1012,6 3,6 0 0,4
20.09.2018 03:00:00 12,9 10,7 16 9 - - SSW 1012,6 18 0 0,0
20.09.2018 02:00:00 13,2 9,7 21 11 - - SW 1012,8 22 0 0,0
20.09.2018 01:00:00 13,9 8,2 29 16 - - WSW 1012,9 11 - 0,0
20.09.2018 00:00:00 16,1 8,4 24 13 - - WSW 1012,5 27 0 0,0
19.09.2018 23:00:00 16,3 9,1 26 14 46 25 WSW 1012,1 23 0 0,0
19.09.2018 22:00:00 17,4 11,2 31 17 48 26 SW 1011,6 40 0 0,0
19.09.2018 21:00:00 17,6 12,9 35 19 70 38 WSW 1011,2 40 0 0,0
19.09.2018 20:00:00 17,6 15,6 26 14 74 40 SW 1010,4 29 0 0,2
19.09.2018 19:00:00 20,9 13,1 37 20 61 33 WSW 1009,1 40 0 0,0
19.09.2018 18:00:00 22,0 12,3 41 22 65 35 SW 1007,9 35 6 0,0
19.09.2018 17:00:00 23,3 12,0 44 24 72 39 SW 1007,3 28 42 0,0
19.09.2018 16:00:00 24,0 11,6 50 27 76 41 SSW 1006,8 35 54 0,0
19.09.2018 15:00:00 24,4 12,1 54 29 83 45 SW 1006,8 24 30 0,0
19.09.2018 14:00:00 22,2 12,0 48 26 81 44 SW 1007,0 30 30 0,0
19.09.2018 13:00:00 22,9 13,2 54 29 81 44 SSW 1006,9 26 12 0,0
19.09.2018 12:00:00 22,1 13,2 54 29 78 42 SSW 1007,7 18 18 0,0
19.09.2018 11:00:00 20,3 13,7 39 21 67 36 SSW 1008,6 40 30 0,0

tt = temperature
td = dewpoint
ff = wind speed
fx = gusts
dd = wind direction
ppp = reduced air pressure
vv = visibility
sd = sunshine duration
rr = precipitation

Next stations